Location: Savageville
(44.2117°N, 71.8937°W)
Time: 13:03:52
(UTC+00:00)

ISS - Visible Passes

Search period start: 13 October 2024 00:00
Search period end: 23 October 2024 00:00
Orbit: 411 x 423 km, 51.6° (Epoch: 12 October)

Date Brightness Start Highest point End Pass type
(mag) Time Alt. Az. Time Alt. Az. Time Alt. Az.
16 Oct -2.1 10:34:10 10° SSW 10:37:13 34° SE 10:40:16 10° ENE visible
17 Oct -1.4 09:46:24 10° S 09:48:58 21° SE 09:51:33 10° E visible
18 Oct -0.9 08:59:26 11° SSE 09:00:44 13° SE 09:02:18 10° ESE visible
18 Oct -3.8 10:33:42 10° WSW 10:37:01 90° SSE 10:40:21 10° ENE visible
19 Oct -3.2 09:46:31 20° SW 09:48:34 54° SE 09:51:49 10° ENE visible
20 Oct -2.2 09:00:26 31° SE 09:00:26 31° SE 09:03:07 10° ENE visible
20 Oct -3.2 10:33:35 10° W 10:36:47 42° NNW 10:39:59 10° NE visible
21 Oct -3.7 09:47:05 38° W 09:48:07 62° NNW 09:51:26 10° NE visible
22 Oct -2.3 09:00:39 37° ENE 09:00:39 37° ENE 09:02:47 10° ENE visible
22 Oct -2.5 10:33:34 10° WNW 10:36:28 27° NNW 10:39:23 10° NE visible
